This is the latest recevied weather packets stored in our database for station/object WY1B. If no packets are shown the sender has not sent any weather packets the latest 10 day(s).
| Time | Temp. | Humidity | Pressure | Rain* | Wind** | Luminosity | Snow |
|---|---|---|---|---|---|---|---|
| 1787687032 | 47.22° C | 15% | 1004.7 hPa | 0 mm | - | 931 W/m² | - |
| 1787686728 | 47.22° C | 14% | 1005 hPa | 0 mm | - | 935 W/m² | - |
| 1787686423 | 47.78° C | 14% | 1005.2 hPa | 0 mm | - | 939 W/m² | - |
| 1787686118 | 47.22° C | 15% | 1005.2 hPa | 0 mm | - | 943 W/m² | - |
| 1787685814 | 47.78° C | 14% | 1005.2 hPa | 0 mm | - | 944 W/m² | - |
| 1787685514 | 47.78° C | 14% | 1005.2 hPa | 0 mm | - | 945 W/m² | - |
| 1787685213 | 47.22° C | 15% | 1005.1 hPa | 0 mm | - | 944 W/m² | - |
| 1787684909 | 47.22° C | 14% | 1005.6 hPa | 0 mm | - | 944 W/m² | - |
| 1787684604 | 46.67° C | 15% | 1005.6 hPa | 0 mm | - | 942 W/m² | - |
| 1787684298 | 46.11° C | 16% | 1005.8 hPa | 0 mm | - | 941 W/m² | - |
| 1787683995 | 46.67° C | 15% | 1005.7 hPa | 0 mm | - | 936 W/m² | - |
| 1787683693 | 46.67° C | 15% | 1005.8 hPa | 0 mm | - | 931 W/m² | - |
| 1787683389 | 46.11° C | 15% | 1005.8 hPa | 0 mm | - | 927 W/m² | - |
| 1787683085 | 46.11° C | 17% | 1006 hPa | 0 mm | - | 918 W/m² | - |
| 1787682781 | 46.11° C | 17% | 1006.2 hPa | 0 mm | - | 911 W/m² | - |
| 1787682477 | 45.56° C | 17% | 1006 hPa | 0 mm | - | 907 W/m² | - |
| 1787682173 | 46.11° C | 17% | 1006.1 hPa | 0 mm | - | 899 W/m² | - |
| 1787681868 | 45.56° C | 18% | 1006.3 hPa | 0 mm | - | 890 W/m² | - |
| 1787681568 | 45° C | 18% | 1006.2 hPa | 0 mm | - | 885 W/m² | - |
| 1787681263 | 44.44° C | 18% | 1006.3 hPa | 0 mm | - | 877 W/m² | - |
| 1787680959 | 43.89° C | 19% | 1006.4 hPa | 0 mm | - | 869 W/m² | - |
| 1787680658 | 43.89° C | 20% | 1006.5 hPa | 0 mm | - | 859 W/m² | - |
| 1787680357 | 43.89° C | 19% | 1006.7 hPa | 0 mm | - | 849 W/m² | - |
| 1787680056 | 43.33° C | 20% | 1006.6 hPa | 0 mm | - | 841 W/m² | - |
| 1787679755 | 42.78° C | 21% | 1006.5 hPa | 0 mm | - | 829 W/m² | - |
* Rain latest hour (hover to see other rain measurements)
** Current wind speed in m/s (hover to see current wind gust speed)